Hourly Weather Almaty

Today, 9 May, Sunday

Time Temperature Precipitation Wind Pressure Humidity
00:00 +18°C° 0 mm 2 mps 689 mmHg 58%
01:00 +18°C° 0 mm 2 mps 688 mmHg 58%
02:00 +19°C° 0 mm 1 mps 688 mmHg 58%
03:00 +18°C° 0 mm 2 mps 688 mmHg 59%
04:00 +17°C° 0 mm 2 mps 687 mmHg 59%
05:00 +17°C° 0 mm 2 mps 687 mmHg 60%
06:00 +19°C° 0 mm 2 mps 687 mmHg 58%
07:00 +21°C° 0 mm 1 mps 687 mmHg 57%
08:00 +23°C° 0 mm 1 mps 687 mmHg 56%
09:00 +24°C° 0 mm 2 mps 687 mmHg 54%
10:00 +25°C° 0 mm 2 mps 687 mmHg 52%
11:00 +26°C° 0 mm 2 mps 687 mmHg 50%
12:00 +26°C° 0.2 mm 2 mps 687 mmHg 50%
13:00 +26°C° 0.2 mm 2 mps 687 mmHg 50%
14:00 +27°C° 0.2 mm 2 mps 687 mmHg 50%
15:00 +26°C° 0.3 mm 2 mps 687 mmHg 52%
16:00 +26°C° 0.3 mm 2 mps 687 mmHg 55%
17:00 +26°C° 0.3 mm 1 mps 687 mmHg 57%
18:00 +23°C° 2.5 mm 2 mps 688 mmHg 69%
19:00 +19°C° 2.5 mm 3 mps 688 mmHg 81%
20:00 +17°C° 2.5 mm 3 mps 689 mmHg 94%
21:00 +17°C° 1.3 mm 3 mps 689 mmHg 93%
22:00 +17°C° 1.3 mm 2 mps 689 mmHg 92%
23:00 +18°C° 1.3 mm 1 mps 689 mmHg 91%

Tomorrow, 10 May, Monday

Time Temperature Precipitation Wind Pressure Humidity
00:00 +18°C° 0.2 mm 1 mps 688 mmHg 90%
01:00 +18°C° 0.2 mm 1 mps 688 mmHg 89%
02:00 +18°C° 0.2 mm 1 mps 688 mmHg 88%
03:00 +18°C° 0 mm 1 mps 687 mmHg 88%
04:00 +16°C° 0 mm 1 mps 687 mmHg 89%
05:00 +16°C° 0 mm 1 mps 687 mmHg 90%
06:00 +18°C° 0 mm 1 mps 687 mmHg 86%
07:00 +19°C° 0 mm 1 mps 687 mmHg 83%
08:00 +20°C° 0 mm 1 mps 687 mmHg 80%
09:00 +20°C° 0.2 mm 1 mps 687 mmHg 79%
10:00 +21°C° 0.2 mm 1 mps 687 mmHg 78%
11:00 +21°C° 0.2 mm 1 mps 687 mmHg 78%
12:00 +22°C° 0.3 mm 1 mps 687 mmHg 76%
13:00 +22°C° 0.3 mm 1 mps 686 mmHg 74%
14:00 +22°C° 0.3 mm 1 mps 686 mmHg 72%
15:00 +22°C° 0.2 mm 1 mps 686 mmHg 73%
16:00 +22°C° 0.2 mm 1 mps 686 mmHg 74%
17:00 +22°C° 0.2 mm 1 mps 686 mmHg 74%
18:00 +21°C° 0.7 mm 1 mps 686 mmHg 79%
19:00 +20°C° 0.7 mm 1 mps 686 mmHg 83%
20:00 +19°C° 0.7 mm 1 mps 686 mmHg 88%
21:00 +17°C° 2.9 mm 2 mps 687 mmHg 88%
22:00 +17°C° 2.9 mm 2 mps 687 mmHg 89%
23:00 +16°C° 2.9 mm 3 mps 687 mmHg 90%

Day after tomorrow, 11 May, Tuesday

Time Temperature Precipitation Wind Pressure Humidity
00:00 +16°C° 0.5 mm 2 mps 687 mmHg 88%
01:00 +16°C° 0.5 mm 1 mps 686 mmHg 85%
02:00 +16°C° 0.5 mm 1 mps 686 mmHg 82%
03:00 +16°C° 0 mm 1 mps 686 mmHg 83%
04:00 +16°C° 0 mm 1 mps 686 mmHg 83%
05:00 +15°C° 0 mm 1 mps 686 mmHg 83%
06:00 +16°C° 0 mm 1 mps 686 mmHg 81%
07:00 +16°C° 0 mm 1 mps 687 mmHg 79%
08:00 +18°C° 0 mm 1 mps 687 mmHg 76%
09:00 +19°C° 0 mm 1 mps 687 mmHg 72%
10:00 +19°C° 0 mm 1 mps 687 mmHg 68%
11:00 +20°C° 0 mm 1 mps 687 mmHg 64%
12:00 +21°C° 0 mm 1 mps 687 mmHg 63%
13:00 +21°C° 0 mm 1 mps 687 mmHg 62%
14:00 +22°C° 0 mm 1 mps 687 mmHg 60%
15:00 +21°C° 0.1 mm 1 mps 688 mmHg 61%
16:00 +21°C° 0.1 mm 1 mps 688 mmHg 62%
17:00 +21°C° 0.1 mm 1 mps 688 mmHg 63%
18:00 +19°C° 0 mm 2 mps 688 mmHg 64%
19:00 +18°C° 0 mm 2 mps 688 mmHg 65%
20:00 +16°C° 0 mm 2 mps 688 mmHg 66%
21:00 +16°C° 0 mm 3 mps 688 mmHg 62%
22:00 +14°C° 0 mm 3 mps 688 mmHg 59%
23:00 +14°C° 0 mm 3 mps 688 mmHg 56%

12 May, Wednesday

Time Temperature Precipitation Wind Pressure Humidity
00:00 +13°C° 0 mm 3 mps 687 mmHg 54%
01:00 +13°C° 0 mm 3 mps 687 mmHg 53%
02:00 +13°C° 0 mm 3 mps 687 mmHg 52%
03:00 +13°C° 0 mm 3 mps 687 mmHg 54%
04:00 +13°C° 0 mm 3 mps 687 mmHg 55%
05:00 +13°C° 0 mm 3 mps 687 mmHg 56%
06:00 +14°C° 0 mm 3 mps 687 mmHg 56%
07:00 +16°C° 0 mm 3 mps 687 mmHg 56%
08:00 +17°C° 0 mm 2 mps 688 mmHg 56%
09:00 +18°C° 0.1 mm 3 mps 688 mmHg 57%
10:00 +18°C° 0.1 mm 4 mps 688 mmHg 58%
11:00 +19°C° 0.1 mm 5 mps 688 mmHg 59%
12:00 +17°C° 1.1 mm 4 mps 688 mmHg 67%
13:00 +14°C° 1.1 mm 3 mps 689 mmHg 76%
14:00 +12°C° 1.1 mm 3 mps 689 mmHg 84%
15:00 +12°C° 0.4 mm 3 mps 689 mmHg 87%
16:00 +12°C° 0.4 mm 2 mps 690 mmHg 89%
17:00 +12°C° 0.4 mm 2 mps 690 mmHg 92%
18:00 +12°C° 0.3 mm 2 mps 691 mmHg 91%
19:00 +10°C° 0.3 mm 2 mps 691 mmHg 89%
20:00 +11°C° 0.3 mm 1 mps 691 mmHg 88%
21:00 +11°C° 0 mm 1 mps 691 mmHg 86%
22:00 +10°C° 0 mm 1 mps 691 mmHg 84%
23:00 +9°C° 0 mm 1 mps 690 mmHg 83%

13 May, Thursday

Time Temperature Precipitation Wind Pressure Humidity
00:00 +8°C° 0 mm 2 mps 690 mmHg 79%
01:00 +8°C° 0 mm 2 mps 690 mmHg 75%
02:00 +8°C° 0 mm 2 mps 689 mmHg 71%
03:00 +8°C° 0 mm 2 mps 689 mmHg 70%
04:00 +9°C° 0 mm 1 mps 689 mmHg 69%
05:00 +9°C° 0 mm 1 mps 689 mmHg 68%
06:00 +11°C° 0 mm 1 mps 689 mmHg 63%
07:00 +12°C° 0 mm 2 mps 688 mmHg 58%
08:00 +14°C° 0 mm 2 mps 688 mmHg 53%
09:00 +15°C° 0 mm 2 mps 688 mmHg 51%
10:00 +16°C° 0 mm 2 mps 688 mmHg 49%
11:00 +17°C° 0 mm 3 mps 688 mmHg 46%
12:00 +17°C° 0 mm 2 mps 688 mmHg 46%
13:00 +18°C° 0 mm 2 mps 688 mmHg 46%
14:00 +18°C° 0 mm 2 mps 688 mmHg 46%
15:00 +18°C° 0 mm 2 mps 687 mmHg 47%
16:00 +19°C° 0 mm 1 mps 687 mmHg 48%
17:00 +19°C° 0 mm 1 mps 687 mmHg 49%
18:00 +18°C° 0 mm 1 mps 687 mmHg 53%
19:00 +15°C° 0 mm 1 mps 688 mmHg 57%
20:00 +14°C° 0 mm 1 mps 688 mmHg 60%
21:00 +13°C° 0 mm 1 mps 688 mmHg 61%
22:00 +13°C° 0 mm 1 mps 687 mmHg 61%
23:00 +13°C° 0 mm 1 mps 687 mmHg 61%

14 May, Friday

Time Temperature Precipitation Wind Pressure Humidity
00:00 +13°C° 0 mm 1 mps 687 mmHg 60%
01:00 +13°C° 0 mm 1 mps 687 mmHg 59%
02:00 +13°C° 0 mm 2 mps 687 mmHg 58%
03:00 +13°C° 0 mm 2 mps 687 mmHg 58%
04:00 +13°C° 0 mm 1 mps 687 mmHg 58%
05:00 +13°C° 0 mm 1 mps 687 mmHg 58%
06:00 +14°C° 0 mm 1 mps 688 mmHg 55%
07:00 +15°C° 0 mm 1 mps 688 mmHg 51%
08:00 +16°C° 0 mm 1 mps 688 mmHg 47%
09:00 +18°C° 0.1 mm 1 mps 689 mmHg 47%
10:00 +18°C° 0.1 mm 2 mps 689 mmHg 47%
11:00 +19°C° 0.1 mm 2 mps 689 mmHg 47%
12:00 +20°C° 0.1 mm 2 mps 689 mmHg 47%
13:00 +20°C° 0.1 mm 3 mps 689 mmHg 47%
14:00 +21°C° 0.1 mm 3 mps 689 mmHg 47%
15:00 +21°C° 0.1 mm 2 mps 689 mmHg 49%
16:00 +21°C° 0.1 mm 2 mps 689 mmHg 51%
17:00 +21°C° 0.1 mm 1 mps 689 mmHg 52%
18:00 +20°C° 0 mm 1 mps 689 mmHg 55%
19:00 +18°C° 0 mm 1 mps 689 mmHg 59%
20:00 +15°C° 0 mm 1 mps 689 mmHg 62%
21:00 +15°C° 0 mm 1 mps 689 mmHg 60%
22:00 +15°C° 0 mm 2 mps 689 mmHg 58%
23:00 +14°C° 0 mm 2 mps 689 mmHg 56%
Show more